[Iaude] MPEC O79: 2024 OL [a=2.20,e=0.48,i=11.4,H=23.4]
    mpec at cfa.harvard.edu 
    mpec at cfa.harvard.edu
       
    Mon Jul 29 05:57:35 EDT 2024
    
    
  
M.P.E.C. 2024-O79                                 Issued 2024 July 29, 09:56 UT
     The Minor Planet Electronic Circulars contain information on unusual
         minor planets, routine data on comets and natural satellites,
         and occasional editorial announcements.  They are published
    on behalf of Division F of the International Astronomical Union by the
          Minor Planet Center, Smithsonian Astrophysical Observatory,
                          Cambridge, MA 02138, U.S.A.
			  
             Prepared using the Tamkin Foundation Computer Network
                              MPC at CFA.HARVARD.EDU
            URL https://www.minorplanetcenter.net/    ISSN 1523-6714
                                    2024 OL                                     
Observations:
     K24O00L*KB2024 07 28.04366 19 53 03.132-22 14 03.55         18.1 GXEO079L87
     K24O00L KB2024 07 28.04978 19 53 04.140-22 13 19.92         19.1 GXEO079L87
     K24O00L KB2024 07 28.05590 19 53 05.131-22 12 34.38               XEO079L87
     K24O00L KB2024 07 28.82451 19 55 37.678-20 40 49.48         19.7 GXEO079L87
     K24O00L KB2024 07 28.82963 19 55 38.539-20 40 12.86         19.6 GXEO079L87
     K24O00L KB2024 07 28.83476 19 55 39.442-20 39 35.68               XEO079L87
     K24O00L KC2024 07 28.88465219 55 47.51 -20 34 50.1          19.7 GVEO079104
     K24O00L KC2024 07 28.90726219 55 51.25 -20 32 08.3          19.5 GVEO079104
     K24O00L KC2024 07 28.91479819 55 52.51 -20 31 14.8                VEO079104
     K24O00L KB2024 07 28.92528019 55 54.95 -20 29 59.3          20.3 GXEO079I93
     K24O00L KB2024 07 28.94755619 55 58.67 -20 27 20.0          19.7 GXEO079I93
     K24O00L  C2024 07 29.34683619 57 14.620-19 39 21.59         19.76wXEO079F52
     K24O00L  C2024 07 29.35076219 57 15.242-19 38 53.81         19.83wXEO079F52
     K24O00L  C2024 07 29.35469319 57 15.874-19 38 25.93         19.85wXEO079F52
     K24O00L  C2024 07 29.35862319 57 16.487-19 37 57.91         19.80wXEO079F52
Observer details:
104 San Marcello Pistoiese.  Observers P. Bacci, M. Maestripieri.  Measurers
    P. Bacci, L. Tesi, G. Fagioli.  0.60-m F4 Reflector + CCD.
F52 Pan-STARRS 2, Haleakala.  Observers J. Herman, T. Lowe, P. Minguez, A.
    Schultz, I. Smith.  Measurers K. Chambers, T. de Boer, J. Fairlamb, H.
    Gao, M. Huber, C.-C. Lin, E. Magnier, Y. Ramanjooloo, R. Wainscoat, R.
    Weryk.  1.8-m Ritchey-Chretien + CCD.
I93 St Pardon de Conques.  Observer F. Losse.  0.40-m f/3.7 reflector + CMO.
L87 Moonbase South Observatory, Hakos.  Observer G. Duszanowicz.  0.28-m f/1.9
    reflector + CMO.
Orbital elements:
2024 OL                                                  Earth MOID = 0.1223 AU
Epoch 2024 Oct. 17.0 TT = JDT 2460600.5                 MPC                     
M  24.54176              (2000.0)            P               Q                  
n   0.30174965     Peri.  358.92604     +0.55602899     +0.81512092             
a   2.2014299      Node   304.83459     -0.76109332     +0.42075281             
e   0.4834911      Incl.   11.41940     -0.33401903     +0.39817705             
P   3.27           H   23.48          G   0.15           U   8                  
Residuals in seconds of arc
240728 L87  0.4+  0.4+    240728 L87  0.6+  1.1+    240728 I93  0.4+  0.3+
240728 L87  0.0   0.5-    240728 104  0.1-  0.4-    240729 F52  0.0   0.1+
240728 L87  0.7-  0.6+    240728 104  0.4-  0.2+    240729 F52  0.0   0.0
240728 L87  0.4-  0.2-    240728 104  0.3-  0.1-    240729 F52  0.1+  0.1-
240728 L87  0.2-  0.3+    240728 I93  0.2+  0.1-    240729 F52  0.1-  0.0
Ephemeris:
2024 OL                  a,e,i = 2.20, 0.48, 11                  q = 1.1371
Date    TT    R. A. (2000) Decl.     Delta      r    Elong.  Phase     V
2024 06 29    18 07 16.5 -58 35 00   0.1955  1.1810   144.4    30.1    21.6
...
2024 07 14    19 02 26.9 -46 19 34   0.1430  1.1472   154.5    22.4    20.6
...
2024 07 22    19 32 31.8 -33 51 07   0.1269  1.1388   164.5    13.8    20.1
...
2024 07 28    19 52 57.6 -22 19 29   0.1230  1.1370   170.8     8.2    19.8
2024 07 29    19 56 07.7 -20 20 06   0.1231  1.1371   171.0     8.0    19.8
2024 07 30    19 59 13.5 -18 20 56   0.1235  1.1373   170.9     8.1    19.8
...
2024 08 05    20 16 21.8 -06 57 58   0.1302  1.1409   165.2    13.1    20.1
...
2024 08 13    20 35 46.0 +05 14 51   0.1500  1.1516   155.8    21.2    20.7
...
2024 08 28    21 04 27.7 +17 54 40   0.2097  1.1893   145.7    28.6    21.7
A. U. Tomatic                (C) Copyright 2024 MPC           M.P.E.C. 2024-O79
    
    
More information about the Iaude
mailing list